This demonstration page uses our WeatherBlox Daily Observations layout. Learn more.

Left ArrowRight Arrow

Hourly Observations for June 8, 2019

Temp ( °F °C ) Dew Point ( °F °C ) Humidity (%) Winds ( mph kmh ) Pressure ( in mb ) Visibility ( mi km ) Precip ( " mm )
12:56 am 00:56 Clear 77 25 63 17 61 61 SE 9 15 29.82 1010 10 16 0.00 0.00
1:56 am 01:56 Clear 77 25 61 16 57 57 SSE 6 9 29.82 1010 10 16 0.00 0.00
2:56 am 02:56 Clear 75 24 61 16 61 61 SE 8 13 29.81 1010 10 16 0.00 0.00
3:56 am 03:56 Clear 73 23 61 16 65 65 SSE 7 11 29.82 1010 10 16 0.00 0.00
4:56 am 04:56 Clear 73 23 61 16 65 65 SSE 9 15 29.82 1010 10 16 0.00 0.00
5:56 am 05:56 Mostly Sunny 72 22 61 16 69 69 SSE 8 13 29.83 1010 10 16 0.00 0.00
6:56 am 06:56 Sunny 73 23 59 15 61 61 SE 7 11 29.85 1011 10 16 0.00 0.00
7:56 am 07:56 Sunny 73 23 59 15 61 61 SE 9 15 29.86 1011 10 16 0.00 0.00
8:56 am 08:56 Sunny 75 24 59 15 57 57 SE 9 15 29.86 1011 10 16 0.00 0.00
9:56 am 09:56 Sunny 79 26 59 15 51 51 SSE 9 15 29.85 1011 10 16 0.00 0.00
10:56 am 10:56 Sunny 81 27 59 15 48 48 SSE 10 17 29.84 1011 10 16 0.00 0.00
11:56 am 11:56 Mostly Sunny 82 28 57 14 42 42 S 10 17 29.84 1011 10 16 0.00 0.00
12:56 pm 12:56 Mostly Sunny 84 29 57 14 40 40 SSE 13 20 29.83 1010 10 16 0.00 0.00
1:56 pm 13:56 undefined N/A N/A N/A S 8 13 N/A N/A 0.00 0.00
2:56 pm 14:56 Sunny 86 30 57 14 38 38 VRB 6 9 29.82 1010 10 16 0.00 0.00
3:56 pm 15:56 Sunny 86 30 55 13 35 35 SSE 10 17 29.79 1009 10 16 0.00 0.00
4:56 pm 16:56 Sunny 88 31 54 12 31 31 SSE 10 17 29.78 1008 10 16 0.00 0.00
5:56 pm 17:56 Sunny 86 30 55 13 35 35 SSE 12 19 29.77 1008 10 16 0.00 0.00
6:56 pm 18:56 Sunny 86 30 55 13 35 35 S 7 11 29.76 1008 10 16 0.00 0.00
7:56 pm 19:56 undefined N/A N/A N/A SSE 6 9 N/A N/A 0.00 0.00
8:56 pm 20:56 Clear 82 28 61 16 48 48 ESE 3 6 29.80 1009 10 16 0.00 0.00
9:56 pm 21:56 Clear 81 27 57 14 45 45 SE 5 7 29.82 1010 10 16 0.00 0.00
10:56 pm 22:56 Partly Cloudy 81 27 57 14 45 45 SE 6 9 29.85 1011 10 16 0.00 0.00
11:56 pm 23:56 Mostly Cloudy 79 26 59 15 51 51 SE 8 13 29.86 1011 10 16 0.00 0.00

Powered by AerisWeather